FW5486 Weather Reports


Display with metric or nautical units.
time (UTC)temp
F
wind
direction
speed
MPH
gust
MPH
rain 1hr
in
rain 24hr
in
rain mn
in
humidity
%
barometer
mb
20260902214020 85 156 0.0 2.0 0.00 0.09 0.09 77 1016.6
20260902213519 85 249 0.0 2.0 0.00 0.09 0.09 75 1016.7
20260902213020 84 249 0.0 2.0 0.00 0.09 0.09 78 1016.7
20260902212521 84 249 0.0 2.0 0.00 0.10 0.09 77 1016.8
20260902212245 84 249 0.0 3.0 0.00 0.10 0.09 78 1016.8
20260902211510 84 249 0.0 3.0 0.00 0.10 0.09 79 1016.7
20260902211010 83 273 0.0 2.0 0.00 0.10 0.09 79 1016.8
20260902210508 83 273 0.0 2.0 0.00 0.10 0.09 79 1016.9
20260902210016 83 274 0.0 2.0 0.00 0.10 0.09 80 1016.9
20260902205502 83 267 0.0 2.0 0.00 0.10 0.09 79 1017.0
20260902205000 83 267 0.0 2.0 0.00 0.10 0.09 80 1017.0
20260902204457 83 252 0.0 1.0 0.00 0.10 0.09 82 1017.0
20260902203956 83 220 0.0 0.0 0.00 0.10 0.09 81 1017.0
20260902203457 83 219 0.0 0.0 0.00 0.10 0.09 81 1017.1
20260902202958 83 220 0.0 0.0 0.00 0.10 0.09 81 1017.2
20260902202451 83 219 0.0 2.0 0.00 0.10 0.09 81 1017.4
20260902201952 83 220 0.0 2.0 0.00 0.10 0.09 81 1017.4
20260902201723 83 220 0.0 2.0 0.00 0.10 0.09 80 1017.3
20260902200952 83 219 0.0 2.0 0.00 0.10 0.09 80 1017.3
20260902200724 83 205 0.0 2.0 0.00 0.10 0.09 78 1017.4
20260902195951 83 267 0.0 2.0 0.00 0.10 0.09 78 1017.4
20260902195722 83 267 1.0 2.0 0.00 0.10 0.09 79 1017.3
20260902194948 83 261 0.0 2.0 0.00 0.10 0.09 80 1017.2
20260902194448 84 261 0.0 2.0 0.00 0.10 0.09 80 1017.3
20260902193948 84 207 0.0 2.0 0.00 0.10 0.09 78 1017.4
20260902193446 84 231 0.0 5.0 0.00 0.10 0.09 78 1017.5
20260902192945 84 136 0.0 5.0 0.00 0.10 0.09 79 1017.7
20260902192439 84 202 0.0 3.0 0.00 0.10 0.09 80 1017.8
20260902191938 84 217 0.0 2.0 0.00 0.10 0.09 80 1017.8
20260902191710 84 207 0.0 3.0 0.00 0.10 0.09 79 1017.7
20260902190939 84 164 2.0 9.0 0.00 0.10 0.09 78 1017.7
20260902190712 84 181 2.0 9.0 0.00 0.10 0.09 77 1017.7
20260902185941 84 216 1.0 7.0 0.00 0.10 0.09 77 1017.7
20260902185433 85 150 3.0 12.0 0.00 0.10 0.09 78 1017.8
20260902185207 85 212 3.0 12.0 0.00 0.10 0.09 76 1017.9
20260902184433 85 190 2.0 7.0 0.00 0.10 0.09 77 1018.0
20260902183933 85 173 3.0 10.0 0.00 0.10 0.09 79 1018.0
20260902183433 85 143 4.0 10.0 0.00 0.10 0.09 79 1017.7
20260902182934 85 158 4.0 12.0 0.00 0.10 0.09 80 1017.6
20260902182431 85 161 3.0 12.0 0.00 0.10 0.09 81 1017.6
20260902182202 84 149 2.0 7.0 0.00 0.10 0.09 82 1017.7
20260902182052 83 140 1.0 6.0 0.01 0.10 0.09 83 1017.5
20260902180929 82 128 1.0 4.0 0.05 0.10 0.09 85 1017.6
20260902180428 81 120 1.0 4.0 0.07 0.10 0.09 85 1017.7
20260902175927 81 140 1.0 2.0 0.07 0.10 0.09 88 1017.8
20260902175421 80 188 1.0 2.0 0.07 0.10 0.09 89 1018.0
20260902174919 80 80 1.0 3.0 0.09 0.10 0.09 87 1018.1
20260902174418 79 80 2.0 3.0 0.09 0.10 0.09 87 1018.1
20260902173916 79 79 2.0 4.0 0.09 0.10 0.09 87 1018.1
20260902173415 79 75 2.0 4.0 0.09 0.10 0.09 89 1018.1
20260902172913 79 79 3.0 5.0 0.09 0.10 0.09 87 1018.1
20260902172642 78 96 5.0 14.0 0.09 0.11 0.09 87 1018.0
20260902171910 78 93 8.0 14.0 0.09 0.11 0.09 86 1018.3
20260902171410 79 92 9.0 15.0 0.08 0.11 0.08 85 1018.3
20260902170910 80 114 10.0 17.0 0.04 0.08 0.05 84 1018.5
20260902170411 81 132 10.0 19.0 0.02 0.06 0.02 80 1018.5
20260902165902 83 107 9.0 19.0 0.02 0.06 0.02 82 1018.4
20260902165404 85 146 7.0 18.0 0.02 0.06 0.02 79 1018.4
20260902165134 87 134 6.0 14.0 0.00 0.04 0.00 72 1018.6
20260902164404 89 132 4.0 11.0 0.00 0.04 0.00 70 1018.5
20260902163903 90 136 4.0 10.0 0.00 0.04 0.00 71 1018.4
20260902163404 90 110 4.0 10.0 0.00 0.04 0.00 70 1018.5
20260902162901 90 114 4.0 10.0 0.00 0.04 0.00 73 1018.6
20260902162632 90 132 4.0 10.0 0.00 0.04 0.00 72 1018.7
20260902161858 90 84 4.0 10.0 0.00 0.04 0.00 72 1018.7
20260902161358 90 98 3.0 7.0 0.00 0.04 0.00 73 1018.6
20260902160857 89 153 4.0 8.0 0.00 0.04 0.00 74 1018.7
20260902160630 89 112 3.0 8.0 0.00 0.04 0.00 74 1018.6
20260902155850 89 106 3.0 11.0 0.00 0.04 0.00 75 1018.7
20260902155352 89 132 4.0 11.0 0.00 0.10 0.00 74 1018.6
20260902155122 89 113 5.0 11.0 0.00 0.24 0.00 75 1018.7
20260902154351 89 142 4.0 11.0 0.00 0.49 0.00 74 1018.6
20260902153850 89 144 2.0 9.0 0.00 0.68 0.00 74 1018.5
20260902153352 89 165 3.0 9.0 0.00 0.73 0.00 75 1018.5
20260902152845 88 141 3.0 9.0 0.00 0.73 0.00 80 1018.5
20260902152344 88 110 3.0 9.0 0.00 0.74 0.00 80 1018.6
20260902151844 87 140 4.0 10.0 0.00 0.76 0.00 81 1018.6
20260902151344 87 143 4.0 10.0 0.00 0.76 0.00 80 1018.6
20260902150845 87 122 4.0 9.0 0.00 0.77 0.00 80 1018.6
20260902150346 87 144 4.0 9.0 0.00 0.77 0.00 81 1018.6
20260902145840 86 128 4.0 8.0 0.00 0.77 0.00 82 1018.6
20260902145342 86 122 4.0 8.0 0.00 0.77 0.00 83 1018.6
20260902144842 86 140 3.0 8.0 0.00 0.77 0.00 82 1018.5
20260902144340 86 135 3.0 7.0 0.00 0.77 0.00 83 1018.5
20260902143841 86 114 3.0 6.0 0.00 0.77 0.00 83 1018.5
20260902143341 85 116 2.0 6.0 0.00 0.77 0.00 85 1018.4
20260902143106 85 84 3.0 8.0 0.00 0.77 0.00 86 1018.4
20260902142334 85 144 4.0 8.0 0.00 0.77 0.00 86 1018.4
20260902141836 84 130 3.0 7.0 0.00 0.77 0.00 86 1018.4
20260902141605 84 83 3.0 7.0 0.00 0.77 0.00 87 1018.3
20260902140835 83 84 3.0 7.0 0.00 0.77 0.00 88 1018.3
20260902140333 83 109 4.0 7.0 0.00 0.77 0.00 88 1018.4
20260902135834 83 104 3.0 7.0 0.00 0.77 0.00 89 1018.4
20260902135605 82 160 3.0 6.0 0.00 0.77 0.00 89 1018.3
20260902134835 82 137 3.0 8.0 0.00 0.77 0.00 90 1018.4
20260902134335 82 88 4.0 8.0 0.00 0.77 0.00 91 1018.4
20260902133831 81 84 5.0 9.0 0.00 0.77 0.00 90 1018.3
20260902133331 81 106 4.0 9.0 0.00 0.77 0.00 91 1018.3
20260902132831 81 86 4.0 8.0 0.00 0.77 0.00 92 1018.3
20260902132331 80 77 4.0 7.0 0.00 0.77 0.00 92 1018.2
20260902131830 80 109 3.0 8.0 0.00 0.77 0.00 93 1018.0
20260902131328 80 103 3.0 7.0 0.00 0.77 0.00 94 1018.1
20260902130824 79 105 3.0 8.0 0.00 0.77 0.00 95 1018.0
20260902130324 79 147 3.0 7.0 0.00 0.77 0.00 95 1018.0
20260902125824 78 129 3.0 4.0 0.00 0.77 0.00 95 1018.0
20260902125558 78 106 2.0 6.0 0.00 0.77 0.00 95 1018.0
20260902125053 78 103 2.0 6.0 0.00 0.77 0.00 95 1017.9
20260902124324 78 102 2.0 6.0 0.00 0.77 0.00 95 1017.9
20260902123821 78 100 2.0 4.0 0.00 0.77 0.00 95 1017.9
20260902123318 77 101 2.0 4.0 0.00 0.77 0.00 95 1017.9
20260902122818 77 88 2.0 4.0 0.00 0.77 0.00 95 1017.8
20260902122319 77 92 1.0 3.0 0.00 0.77 0.00 95 1017.7
20260902121817 77 78 2.0 3.0 0.00 0.77 0.00 95 1017.5
20260902121316 77 95 1.0 4.0 0.00 0.77 0.00 95 1017.4
20260902120811 77 109 1.0 4.0 0.00 0.77 0.00 95 1017.3
20260902120312 77 126 1.0 4.0 0.00 0.77 0.00 95 1017.3
20260902115812 77 90 2.0 4.0 0.00 0.77 0.00 95 1017.4
20260902115312 77 113 1.0 2.0 0.00 0.77 0.00 95 1017.3
20260902114811 77 113 1.0 2.0 0.00 0.77 0.00 95 1017.2
20260902114542 77 113 1.0 2.0 0.00 0.77 0.00 95 1017.1
20260902113806 77 113 1.0 2.0 0.00 0.78 0.00 95 1017.1
20260902113306 77 113 1.0 2.0 0.00 0.80 0.00 95 1017.0
20260902112806 77 114 1.0 3.0 0.00 0.80 0.00 95 1017.0
20260902112307 77 113 2.0 3.0 0.00 0.80 0.00 95 1017.0
20260902111805 77 111 1.0 3.0 0.00 0.84 0.00 95 1017.1
20260902111306 76 88 1.0 2.0 0.00 0.84 0.00 94 1017.1
20260902110801 76 88 1.0 2.0 0.00 0.84 0.00 94 1017.0
20260902110301 76 86 1.0 2.0 0.00 0.84 0.00 94 1016.9
20260902105757 76 66 1.0 2.0 0.00 0.84 0.00 94 1016.8
20260902105258 76 160 0.0 2.0 0.00 0.84 0.00 94 1016.8
20260902104759 77 159 0.0 2.0 0.00 0.85 0.00 94 1016.7
20260902104258 77 159 0.0 2.0 0.00 0.85 0.00 94 1016.7
20260902103752 77 159 0.0 2.0 0.00 0.85 0.00 94 1016.7
20260902103249 77 159 0.0 2.0 0.00 0.86 0.00 94 1016.7
20260902102748 77 159 0.0 2.0 0.00 0.97 0.00 94 1016.6
20260902102518 77 140 0.0 2.0 0.00 0.98 0.00 94 1016.6
20260902101746 77 140 0.0 2.0 0.00 0.98 0.00 94 1016.7
20260902101245 77 140 1.0 1.0 0.00 0.98 0.00 94 1016.7
20260902100743 77 140 1.0 2.0 0.00 0.98 0.00 94 1016.8
20260902100514 77 140 1.0 2.0 0.00 0.98 0.00 94 1016.8
20260902095743 77 140 1.0 2.0 0.00 1.10 0.00 94 1016.8
20260902095241 77 128 0.0 2.0 0.00 1.12 0.00 94 1016.8
20260902094741 77 128 0.0 2.0 0.00 1.13 0.00 94 1016.9
20260902094507 77 128 1.0 2.0 0.00 1.13 0.00 94 1016.8
20260902093737 77 128 1.0 2.0 0.00 1.13 0.00 94 1016.7
20260902093237 77 138 1.0 2.0 0.00 1.13 0.00 94 1016.7
20260902093010 77 140 1.0 2.0 0.00 1.13 0.00 94 1016.7
20260902092236 77 94 1.0 2.0 0.00 1.13 0.00 94 1016.7
20260902091737 77 94 2.0 3.0 0.00 1.13 0.00 94 1016.7
20260902091232 77 103 1.0 3.0 0.00 1.13 0.00 94 1016.8
20260902090730 77 117 1.0 3.0 0.00 1.13 0.00 94 1016.7
20260902090227 77 122 1.0 3.0 0.00 1.13 0.00 94 1016.7
20260902085727 77 142 1.0 3.0 0.00 1.13 0.00 94 1016.8
20260902085227 77 101 2.0 3.0 0.00 1.13 0.00 94 1016.7
20260902084728 77 104 2.0 3.0 0.00 1.13 0.00 94 1016.7
20260902084221 77 108 1.0 3.0 0.00 1.13 0.00 94 1016.6
20260902083721 77 113 1.0 3.0 0.00 1.13 0.00 94 1016.6
20260902083221 77 114 1.0 3.0 0.00 1.13 0.00 94 1016.7
20260902082721 77 107 1.0 3.0 0.00 1.13 0.00 94 1016.7
20260902082220 77 128 1.0 3.0 0.00 1.13 0.00 93 1016.7
20260902081721 77 103 1.0 3.0 0.00 1.13 0.00 93 1016.6
20260902081213 77 120 1.0 3.0 0.00 1.13 0.00 93 1016.7
20260902080711 77 101 1.0 3.0 0.00 1.13 0.00 93 1016.7
20260902080211 77 113 1.0 3.0 0.00 1.13 0.00 93 1016.6
20260902075711 78 103 1.0 3.0 0.00 1.13 0.00 93 1016.6
20260902075211 78 123 1.0 2.0 0.00 1.13 0.00 93 1016.6
20260902074713 78 123 1.0 2.0 0.00 1.13 0.00 93 1016.7
20260902074443 78 123 1.0 2.0 0.00 1.13 0.00 93 1016.7
20260902073709 78 123 1.0 2.0 0.00 1.13 0.00 93 1016.8
20260902073212 78 123 1.0 2.0 0.00 1.13 0.00 93 1016.8
20260902072712 78 124 1.0 2.0 0.00 1.13 0.00 93 1016.9
20260902072206 78 119 1.0 3.0 0.00 1.13 0.00 93 1016.9
20260902071705 78 140 1.0 3.0 0.00 1.13 0.00 93 1017.0
20260902071207 78 127 1.0 2.0 0.00 1.13 0.00 93 1017.0
20260902070706 78 127 1.0 2.0 0.00 1.13 0.00 93 1017.0
20260902070205 78 120 1.0 2.0 0.00 1.13 0.00 93 1017.1
20260902065708 78 120 1.0 2.0 0.00 1.13 0.00 93 1017.1
20260902065201 78 115 1.0 3.0 0.00 1.13 0.00 93 1017.0
20260902064701 78 115 1.0 3.0 0.00 1.13 0.00 92 1016.9
20260902064434 78 115 1.0 3.0 0.00 1.13 0.00 92 1016.8
20260902064320 78 113 2.0 3.0 0.00 1.13 0.00 92 1016.8
20260902063201 78 126 2.0 3.0 0.00 1.13 0.00 92 1016.9
20260902062703 78 117 2.0 3.0 0.00 1.13 0.00 92 1017.0
20260902062202 78 141 1.0 3.0 0.00 1.13 0.00 92 1017.0
20260902061701 78 117 1.0 3.0 0.00 1.13 0.00 92 1016.9
20260902061434 78 132 1.0 3.0 0.00 1.13 0.00 92 1016.9
20260902060705 78 142 1.0 3.0 0.00 1.13 0.00 92 1016.9
20260902060200 78 190 2.0 6.0 0.00 1.13 0.00 92 1016.9
20260902055658 78 165 2.0 6.0 0.00 1.13 0.00 92 1016.9
20260902055203 78 134 2.0 6.0 0.00 1.13 0.00 92 1017.0
20260902055158 78 173 2.0 5.0 0.00 1.13 0.00 92 1016.9
20260902054153 79 134 2.0 7.0 0.00 1.13 0.00 92 1017.0
20260902053656 79 126 2.0 7.0 0.00 1.13 0.00 92 1017.0
20260902053425 79 161 2.0 6.0 0.00 1.13 0.00 92 1017.1
20260902052652 79 144 2.0 6.0 0.00 1.13 0.00 92 1017.1
20260902052422 79 114 2.0 7.0 0.00 1.13 0.00 92 1017.0
20260902051646 79 130 3.0 7.0 0.00 1.13 0.00 92 1016.9
20260902051417 79 142 2.0 6.0 0.00 1.13 0.00 92 1016.9
20260902050917 79 132 3.0 7.0 0.00 1.13 0.00 92 1016.9
20260902050144 79 140 2.0 7.0 0.00 1.13 0.00 92 1016.9
20260902045644 79 173 3.0 7.0 0.00 1.13 1.13 92 1016.9
20260902045146 79 132 3.0 7.0 0.00 1.13 1.13 92 1016.9
20260902044639 79 138 3.0 6.0 0.00 1.13 1.13 92 1016.9
20260902044140 79 127 2.0 6.0 0.00 1.13 1.13 92 1017.0
20260902043640 79 111 2.0 7.0 0.00 1.13 1.13 92 1017.1
20260902043139 79 155 3.0 7.0 0.00 1.13 1.13 92 1017.0
20260902042141 79 105 3.0 8.0 0.00 1.13 1.13 92 1017.1
20260902041640 79 133 4.0 8.0 0.00 1.13 1.13 92 1017.1
20260902041135 79 132 4.0 8.0 0.00 1.13 1.13 92 1017.2
20260902040633 79 119 3.0 8.0 0.00 1.13 1.13 92 1017.1
20260902040130 79 151 3.0 8.0 0.00 1.13 1.13 92 1017.2
20260902035628 79 144 3.0 7.0 0.00 1.13 1.13 92 1017.3
20260902035128 79 140 3.0 8.0 0.00 1.13 1.13 92 1017.3
20260902034623 79 130 3.0 8.0 0.00 1.13 1.13 92 1017.3
20260902034121 79 123 4.0 8.0 0.00 1.13 1.13 92 1017.3
20260902033620 79 136 4.0 8.0 0.00 1.13 1.13 92 1017.1
20260902033117 79 151 4.0 8.0 0.00 1.13 1.13 92 1017.3
20260902032617 79 117 3.0 8.0 0.00 1.13 1.13 92 1017.2
20260902032112 79 124 3.0 8.0 0.00 1.13 1.13 92 1017.1
20260902031609 79 110 3.0 8.0 0.00 1.13 1.13 92 1017.1
20260902031339 79 129 3.0 8.0 0.00 1.13 1.13 92 1017.1
20260902030605 79 115 3.0 8.0 0.00 1.13 1.13 92 1017.1
20260902030104 79 116 3.0 8.0 0.00 1.13 1.13 92 1017.1
20260902025559 80 79 3.0 7.0 0.00 1.13 1.13 92 1017.0
20260902025056 80 124 3.0 7.0 0.00 1.13 1.13 92 1017.0
20260902024555 80 121 3.0 6.0 0.00 1.13 1.13 92 1016.9
20260902024053 80 115 3.0 6.0 0.00 1.13 1.13 92 1016.9
20260902023552 80 109 3.0 6.0 0.00 1.13 1.13 92 1016.8
20260902023047 80 124 3.0 7.0 0.00 1.13 1.13 92 1016.7
20260902022544 80 89 3.0 7.0 0.00 1.13 1.13 91 1016.7
20260902022041 80 128 3.0 4.0 0.00 1.13 1.13 91 1016.8
20260902021813 80 113 2.0 4.0 0.00 1.13 1.13 91 1016.8
20260902021314 80 107 2.0 3.0 0.00 1.13 1.13 91 1016.7
20260902020542 80 91 2.0 3.0 0.00 1.13 1.13 91 1016.6
20260902020039 80 107 2.0 3.0 0.00 1.13 1.13 91 1016.6
20260902015539 80 101 2.0 4.0 0.00 1.13 1.13 91 1016.5
20260902015037 80 119 2.0 4.0 0.00 1.13 1.13 90 1016.4
20260902014536 80 108 2.0 4.0 0.00 1.13 1.13 90 1016.4
20260902014036 80 121 2.0 4.0 0.00 1.13 1.13 90 1016.3
20260902013537 80 120 3.0 4.0 0.00 1.13 1.13 90 1016.1
20260902013032 80 82 2.0 4.0 0.00 1.13 1.13 90 1016.0
20260902012805 80 113 2.0 4.0 0.00 1.13 1.13 89 1016.0
20260902012032 80 120 2.0 3.0 0.00 1.13 1.13 89 1016.1
20260902011534 80 116 2.0 3.0 0.00 1.13 1.13 89 1016.2
20260902011030 80 131 1.0 3.0 0.00 1.13 1.13 89 1016.0
20260902010803 81 122 2.0 3.0 0.00 1.13 1.13 89 1016.1
20260902010026 81 116 1.0 3.0 0.00 1.13 1.13 88 1016.1
20260902005525 81 130 2.0 3.0 0.00 1.13 1.13 88 1016.1
20260902005027 81 123 2.0 7.0 0.00 1.13 1.13 88 1016.1
20260902004758 81 118 2.0 7.0 0.00 1.13 1.13 88 1016.1
20260902004026 81 88 3.0 9.0 0.00 1.13 1.13 88 1016.1
20260902003524 81 104 3.0 9.0 0.00 1.13 1.13 88 1016.1
20260902003020 81 127 3.0 9.0 0.00 1.13 1.13 88 1016.1
20260902002520 81 115 4.0 9.0 0.00 1.13 1.13 87 1016.1
20260902002019 81 105 4.0 9.0 0.00 1.13 1.13 87 1016.1
20260902001516 82 127 4.0 8.0 0.00 1.13 1.13 87 1015.9
20260902001015 82 141 3.0 7.0 0.00 1.13 1.13 87 1016.0
20260902000747 82 112 3.0 7.0 0.00 1.13 1.13 87 1016.1
20260902000013 82 111 3.0 7.0 0.00 1.13 1.13 87 1016.2
20260901235512 82 111 3.0 7.0 0.00 1.13 1.13 87 1016.2
20260901235011 82 113 3.0 7.0 0.00 1.13 1.13 86 1016.3
20260901234512 82 117 3.0 7.0 0.00 1.13 1.13 86 1016.3
20260901234237 82 124 4.0 8.0 0.00 1.13 1.13 86 1016.3
20260901233508 82 114 4.0 9.0 0.00 1.13 1.13 86 1016.2
20260901233007 82 104 4.0 9.0 0.00 1.13 1.13 86 1016.2
20260901232506 82 142 4.0 8.0 0.00 1.13 1.13 86 1016.2
20260901232007 82 122 4.0 8.0 0.00 1.13 1.13 85 1016.2
20260901231508 82 126 3.0 8.0 0.00 1.13 1.13 86 1016.1
20260901231003 82 124 4.0 8.0 0.00 1.13 1.13 86 1016.0
20260901230504 82 145 5.0 10.0 0.00 1.13 1.13 86 1015.9
20260901230010 82 115 5.0 10.0 0.00 1.13 1.13 86 1015.9
20260901225503 82 123 5.0 10.0 0.00 1.13 1.13 86 1015.9
20260901225004 82 103 5.0 10.0 0.00 1.13 1.13 86 1015.8
20260901224505 82 105 4.0 10.0 0.00 1.13 1.13 85 1015.8
20260901224002 82 132 4.0 10.0 0.00 1.13 1.13 85 1015.8
20260901223502 82 120 5.0 10.0 0.00 1.13 1.13 85 1015.7
20260901223002 82 124 7.0 12.0 0.00 1.13 1.13 85 1015.6
20260901222735 82 92 6.0 12.0 0.01 1.13 1.13 85 1015.6
20260901222004 82 117 6.0 12.0 0.01 1.13 1.13 85 1015.7
20260901221727 82 104 6.0 12.0 0.01 1.13 1.13 86 1015.7
20260901220955 82 86 6.0 9.0 0.01 1.13 1.13 88 1015.5
20260901220451 82 138 5.0 9.0 0.01 1.13 1.13 87 1015.6
20260901215949 82 127 3.0 7.0 0.01 1.13 1.13 88 1015.7
20260901215722 82 86 3.0 7.0 0.01 1.13 1.13 89 1015.6
20260901214947 82 127 4.0 7.0 0.01 1.13 1.13 89 1015.6
20260901214447 83 109 3.0 7.0 0.01 1.13 1.13 88 1015.5